Location: Castellare
(42.4669°N, 9.4728°E)
Time: 09:22:35
(UTC+00:00)

STARLINK-1085 - Pass Details

Date: 17 February 2020
Orbit: 374 x 385 km, 53.0° (Epoch: 30 March)

Event Time Altitude Azimuth Distance (km) Brightness Sun altitude
Exits shadow 05:14:21 16° 239° (WSW) 1,108 4.7 -12.2°
Maximum altitude 05:16:45 76° 324° (NW) 402 2.8 -11.7°
Drops below altitude 10° 05:19:55 10° 51° (NE) 1,411 6.4 -11.2°
Sets 05:21:58 0° 53° (NE) 2,264 7.5 -10.8°
